Terminal Aerodrome Forecast
Issued by NWS Goodland, KS

Home | Current Version | Previous Version | Text Only | Print | Product List | Glossary On
Versions: 1 2 3 4 5 6 7 8 9 10 11 12 13 14 15 16 17 18
395
FTUS43 KGLD 162057 AAA
TAFGLD
TAF AMD
KGLD 162057Z 1621/1718 05013G24KT P6SM FEW250
     FM170700 01011KT P6SM SCT003 BKN015
      TEMPO 1711/1713 -FZDZ SCT003 OVC008
     FM171400 35008KT P6SM SCT003 OVC008=

USA.gov is the U.S. government's official web portal to all federal, state and local government web resources and services.